Flag for Germany Weather past 2 weeks in Waldkraiburg, Bavaria, Germany

Now
54 °F

Cool.


Feels Like: 53 °F
Forecast: 44 / 71 °F
Wind: 5 mph from West

Location: Erding Airport

Current Time: Aug 21, 2014 at 6:52:34 AM

Latest Report: Aug 21, 2014 at 6:20 AM


Visibility: 4 mi

Pressure: 30.04 "Hg

Humidity: 100%

Dew point: 54 °F

Location of WaldkraiburgLocation

Historic Weather in Waldkraiburg — Graph

°F

Waldkraiburg temperature yesterday

Maximum temperature yesterday: 63 °F (at 12:20 PM)
Minimum temperature yesterday: 55 °F (at 4:20 AM)
Average temperature yesterday: 59 °F

Past Weeks' High & Low Weather Summary

 TemperatureHumidityPressure
High72 °F (Aug 18, 3:20 PM)100% (Aug 19, 5:20 AM)30.07 "Hg (Aug 19, 5:20 AM)
Low52 °F (Aug 19, 3:20 AM)50% (Aug 18, 2:20 PM)29.86 "Hg (Aug 18, 1:20 PM)
Average60 °F75%29.96 "Hg
* Reported Aug 18 8:20 AM — Aug 21 5:20 AM, Waldkraiburg, Weather by CustomWeather, © 2014

Note: Actual official high and low records may vary slightly from our data, if they occured in-between our weather recording intervals... More about our weather records

Advertising

Waldkraiburg weather history for previous 24 hours

 ConditionsComfort  
Time TempWeatherWind HumidityBarometerVisibility
5:20 AM
Aug 21
54 °FCool.2 mph100%30.04 "Hg4 mi
4:20 AM54 °FCool.5 mph100%30.04 "Hg3 mi
3:20 AM52 °FCool.1 mph100%30.01 "Hg3 mi
2:20 AM54 °FCool.3 mph100%30.01 "Hg3 mi
1:20 AM55 °FCool.3 mph94%30.04 "Hg4 mi
12:20 AM55 °FCool.1 mph94%30.04 "Hg5 mi
11:20 PM
Aug 20
55 °FCool.1 mph88%30.04 "Hg6 mi
10:20 PM55 °FCool.3 mph88%30.04 "Hg6 mi
9:20 PM57 °FCool.3 mph88%30.04 "Hg6 mi
8:20 PM57 °FCool.2 mph88%30.04 "HgN/A
7:20 PM59 °FCool.5 mph77%30.04 "HgN/A
6:20 PM61 °FCool.6 mph77%30.01 "HgN/A
5:20 PM61 °FCool.2 mph72%30.04 "HgN/A
4:20 PM61 °FPartly sunny.1 mph72%30.04 "HgN/A
3:20 PM61 °FSprinkles. Partly sunny.1 mph68%30.04 "HgN/A
2:20 PM61 °FPartly sunny.1 mph68%30.04 "HgN/A
1:20 PM61 °FPartly sunny.2 mph68%30.04 "HgN/A
12:20 PM63 °FBroken clouds.3 mph64%30.04 "HgN/A
11:20 AM61 °FPartly sunny.1 mph68%30.07 "HgN/A
10:20 AM61 °FCool.2 mph63%30.07 "HgN/A
9:20 AM59 °FCool.2 mph72%30.04 "HgN/A
8:20 AM57 °FPartly sunny.2 mph82%30.04 "HgN/A
7:20 AM57 °FPartly sunny.2 mph82%30.04 "HgN/A
6:20 AM55 °FCool.1 mph88%30.04 "HgN/A
Weather by CustomWeather, © 2014

See weather overviewHow to use our weather pages